Вернуться в каталог

NOAA 16 DEB

АктивенPO
NORAD 41507·DEBRIS·🇺🇸 United States

Запущен Sep 21, 2000 с Vandenberg Space Force Base

Loading…

Ближайшие Пролёты (ближайшие 24 часа)

TLE

СвежийSource: Space-Track

Эпоха: Sep 14, 2026, 08:40 UTC

1 41507U 00055MF  26257.36169887  .00008823  00000-0  15906-2 0  9991
2 41507  98.9208  90.8239 0010358 161.1527 199.0060 14.66746078 75934

Отслеживайте NOAA 16 DEB в реальном времени с AllMySat

Download on the App Store